Weather in Tyreso

Sweden     59°14′39″N   18°16′34″E
В апреле 2022 года жителям России запретили посещать сайт meteo.paraplan.net по решению Генеральной прокуратуры. Аудитория сайта уменьшилась в 10 раз. Владельцы сайта не видят смысла в поддержке погодного сервера в таких условиях. Сайт будет закрыт в октябре.
temp.,
°C
wind,
m/s
gust,
m/s
humid.,
%
clouds,
%
prec.,
mm/h
press.,
hPa
HPBL,
m
4 october, tue
tue423:00+9nnw510925 0.0 1013396
02:00+8nw5128831 0.0 1013386
05:00+8nnw512891 0.0 1013402
08:00+8nw510851 0.0 1012314
11:00+11nw58651 0.0 1013512
14:00+14wnw45605 0.0 1013671
17:00+13w2461100 0.0 1012174
20:00+11sw3872100 0.0 1011190
5 october, wed
wed523:00+11ssw41081100 0.4 1011305
02:00+11ssw4118697 0.4 1009337
05:00+12sw51387100 0.0 1007485
08:00+12sw61390100 0.0 1006575
11:00+14sw41085100 0.0 1007609
14:00+15sw5882100 0.1 1007581
17:00+13ssw61192100 0.1 1005385
20:00+14ssw7148842 0.1 1004542
6 october, thu
thu623:00+14ssw8178584 0.0 1002620
02:00+13sw7168551 0.0 1002682
05:00+14wsw7137556 0.0 1002896
08:00+11wsw614790 0.0 1004849
11:00+13wsw7136843 0.0 10051178
14:00+15wsw8165811 0.0 10051536
17:00+14w918620 0.0 10071574
20:00+12wsw918660 0.0 10091263
7 october, fri
fri723:00+11wsw9187121 0.0 10101265
02:00+11wsw9177122 0.0 10121067
05:00+10wsw717731 0.0 10131093
08:00+10wsw7147826 0.0 1014966
11:00+13sw71367100 0.0 10141041
14:00+14ssw91571100 0.0 10111043
17:00+13sw91674100 0.0 10091078
20:00+14sw91673100 0.0 10081035
8 october, sat
sat823:00+13sw91672100 0.0 10061166
02:00+13ssw91775100 0.0 10031322
05:00+12sw91578100 0.1 10011242
08:00+10wsw61283100 1.6 1000914
11:00+12wsw8136810 0.0 10011236
14:00+13wsw814636 0.1 10001591
17:00+12wsw814625 0.0 10011570
20:00+10wsw814665 0.0 10021278